SCP
0 0 0 0 0 0 0 0 0 0 0 0 0 0 0 0 0 0 0 0 0 0 0 1 0 0 0 0 0 0 0 0 0 0 0 0 0 0 0 0 0 0 0 0 0 0 0 0 0
0 0 0 0 0 0 0 0 0 0 0 0 0 0 0 0 0 0 0 0 0 0 0 1 1 1 0 0 0 0 0 0 0 0 0 0 0 0 0 1 0 0 0 0 0 0 0 0 0
0 0 0 0 0 0 0 0 0 0 0 0 0 0 0 0 0 0 0 0 0 0 1 1 1 1 1 0 0 0 0 0 0 0 0 0 0 1 1 1 1 1 1 0 0 0 0 0 0
0 0 0 0 0 0 0 0 0 0 0 0 0 0 0 0 0 0 0 0 0 0 1 2 1 1 1 0 0 0 0 0 0 0 0 0 1 1 1 1 1 1 1 1 1 0 0 0 0
0 0 0 0 0 0 0 0 0 0 0 0 0 0 0 0 0 0 0 0 0 0 1 2 1 1 1 1 1 0 0 0 0 0 1 1 1 1 1 1 1 1 1 1 1 1 1 0 0
0 0 0 0 0 0 0 0 0 0 0 0 0 0 0 0 0 0 0 0 0 0 1 1 1 1 1 1 1 1 1 1 1 1 1 1 1 1 1 1 1 1 1 1 1 1 1 1 1
0 0 0 0 0 0 0 0 0 0 0 0 0 0 0 0 0 0 0 0 0 0 0 1 1 1 1 1 1 1 1 1 1 1 1 1 1 1 1 1 1 1 1 1 1 1 1 1 1
-0 0 0 0 0 0 0 0 0 0 0 0 0 0 0 0 0 0 0 0 0 0 0 0 0 1 1 1 1 1 1 1 1 1 1 1 1 1 1 1 1 1 1 1 1 1 1 1 1
0 0 0 0 0 0 0 0 0 0 0 0 0 0 0 0 0 0 0 0 0 0 0 0 0 0 1 1 1 1 1 1 1 1 1 1 1 0 1 1 1 1 1 1 1 1 1 1 1
0 0 0 0 0 0 0 0 0 0 0 0 0 0 0 0 0 0 0 0 0 0 0 0 0 0 0 1 1 1 1 1 1 1 1 1 1 0 0 1 1 1 1 1 1 1 1 1 1
0 0 0 0 0 0 0 0 0 0 0 0 0 0 0 0 0 0 0 0 0 0 0 0 0 0 0 1 1 1 1 1 1 1 1 1 1 1 1 1 1 1 0 0 0 0 0 0 1
0 0 0 0 0 0 0 0 0 0 0 0 0 0 0 0 0 0 0 0 0 0 0 0 0 0 0 0 1 1 1 1 1 1 1 1 1 1 1 1 1 0 0 0 0 0 0 0 1
0 0 0 0 0 0 0 0 0 0 0 0 0 0 0 0 0 0 0 0 0 0 0 0 0 0 0 0 0 0 1 1 1 1 1 1 1 1 1 1 1 1 0 0 0 0 0 0 1
0 0 0 0 0 0 0 0 0 0 0 0 0 0 0 0 0 0 0 0 0 0 0 0 0 0 0 0 0 0 0 0 1 1 1 1 1 1 1 1 1 1 1 0 0 0 0 1 1
0 0 0 0 0 0 0 0 0 0 0 0 0 0 0 0 0 0 0 0 0 0 0 0 0 0 0 0 0 0 0 0 0 0 0 1 1 1 1 1 1 1 1 1 1 1 1 1 1
0 0 0 0 0 0 0 0 0 0 0 0 0 0 0 0 0 0 0 0 0 0 0 0 0 0 0 0 0 0 0 0 0 0 0 0 0 0 0 0 0 0 0 0 0 1 1 1 1
0 0 0 0 0 0 0 0 0 0 0 0 0 0 0 0 0 0 0 0 0 0 0 0 0 0 0 0 0 0 0 0 0 0 0 0 0 0 0 0 0 0 0 0 0 0 1 1 1
0 0 0 0 0 0 0 0 0 0 0 0 0 0 0 0 0 0 0 0 0 0 0 0 0 0 0 0 0 0 0 0 0 0 0 0 0 0 0 0 0 0 0 0 0 0 1 1 1
0 0 0 0 0 0 0 0 0 0 0 0 0 0 0 0 0 0 0 0 0 0 0 0 0 0 0 0 0 0 0 0 0 0 0 0 0 0 0 0 0 0 0 0 0 0 0 0 1
0 0 0 0 0 0 0 0 0 0 0 0 0 0 0 0 0 0 0 0 0 0 0 0 0 0 0 0 0 0 0 0 0 0 0 0 0 0 0 0 0 0 0 0 0 0 0 0 0
0 0 0 0 0 0 0 0 0 0 0 0 0 0 0 0 0 0 0 0 0 -0 -0 0 0 0 0 0 0 0 0 0 0 0 0 0 0 0 0 0 0 0 0 0 0 0 0 0 0
0 0 0 0 0 0 0 0 0 0 0 0 0 0 0 0 0 0 0 0 0 -0 -0 -0 -0 0 0 0 0 0 0 0 0 0 0 0 0 0 0 0 0 0 0 0 0 0 0 0 0
0 0 0 0 0 0 0 0 0 0 0 0 0 0 0 0 0 0 0 -0 -0 -0 -0 0 0 0 0 0 0 0 0 0 0 0 0 0 0 0 0 0 0 0 0 0 0 0 0 0 0
0 0 0 0 0 0 0 0 0 0 0 0 0 0 0 0 0 0 0 -0 -0 0 0 0 0 0 0 0 0 0 0 0 0 0 0 0 0 0 0 0 0 0 0 0 0 0 0 0 0
0 0 0 0 0 0 0 0 0 0 0 0 0 0 0 0 0 0 0 0 0 0 0 0 0 0 0 0 0 0 0 0 0 0 0 0 0 0 0 0 0 0 0 0 0 0 0 0 0
0 0 0 0 0 0 0 0 0 0 0 0 0 0 0 0 0 0 0 0 0 0 0 0 0 0 0 0 0 0 0 0 0 0 0 0 0 0 0 0 0 0 0 0 0 0 0 0 0
0 0 0 0 0 0 0 0 0 0 0 0 0 0 0 0 0 0 0 0 0 0 0 0 0 0 0 0 0 0 0 0 0 0 0 0 0 0 0 0 0 0 0 0 0 0 0 0 0
0 0 0 0 0 0 0 0 0 0 0 0 0 0 0 0 0 0 0 0 0 0 0 0 0 0 0 0 0 0 0 0 0 0 0 0 0 0 0 0 0 0 0 0 0 0 0 0 0
0 0 0 0 0 0 0 0 0 0 0 0 0 0 0 0 0 0 0 0 0 0 0 0 0 0 0 0 0 0 0 0 0 0 0 0 0 0 0 0 0 0 0 0 0 0 0 0 0
0 0 0 0 0 0 0 0 0 0 0 0 0 0 0 0 0 0 0 0 0 0 0 0 0 0 0 0 0 0 0 0 0 0 0 0 0 0 0 0 0 0 0 0 0 0 0 0 0
Wind_Speed
11 12 8 2 3 5 9 1 5 6 5 7 6 4 5 7 7 5 3 4 5 8 13 10 11 10 9 7 6 5 4 3 2 1 1 1 1 2 3 4 5 5 5 5 5 4 4 5 4
9 10 5 3 4 6 4 5 2 7 7 3 1 3 3 7 7 8 5 5 3 6 11 11 12 10 8 8 7 6 6 4 3 3 3 3 2 2 3 3 4 5 5 4 4 4 4 4 4
10 10 4 3 5 4 6 7 8 6 3 1 1 1 4 5 6 5 5 4 3 6 9 13 15 11 9 8 8 7 7 6 5 4 4 3 2 2 3 3 2 2 2 2 2 3 3 4 4
6 4 4 4 11 4 4 6 6 4 3 1 4 2 6 6 4 6 4 2 3 7 11 14 15 12 10 9 9 8 8 7 7 6 5 5 4 2 2 3 2 1 1 1 2 3 4 4 5
4 3 5 7 10 3 3 6 3 6 2 3 2 5 5 5 8 7 5 2 3 4 11 13 14 12 10 9 9 9 8 8 8 7 6 6 5 3 2 2 0 1 1 0 1 3 4 5 5
3 3 5 6 5 3 2 5 3 5 6 1 2 4 5 6 9 6 4 0 1 4 7 11 13 12 10 9 9 9 9 9 9 8 6 5 5 5 4 3 3 2 2 1 1 2 4 5 6
4 4 7 9 6 4 5 7 6 8 9 8 7 6 4 8 6 4 4 2 4 5 3 5 9 10 11 10 10 10 9 8 8 8 7 5 3 4 4 2 3 4 4 2 1 2 4 6 7
3 4 7 5 3 4 7 4 3 5 7 3 3 4 5 4 4 3 3 2 4 3 2 3 2 8 10 10 12 11 9 8 7 7 7 5 3 4 6 6 7 7 6 4 2 1 3 5 6
3 3 5 5 6 6 7 6 7 3 5 5 3 4 5 6 3 1 1 4 5 5 3 3 5 5 1 4 11 9 8 8 7 6 8 6 4 6 8 12 10 9 7 6 6 6 5 5 6
3 3 5 5 5 7 9 8 8 6 7 8 7 6 7 3 2 2 4 4 3 5 6 5 5 6 5 4 4 4 6 6 7 6 7 6 5 5 3 7 9 8 8 9 10 11 9 7 5
5 5 6 5 4 5 7 8 8 8 7 7 8 10 8 6 4 3 4 3 5 7 7 5 5 5 5 3 1 1 1 1 5 7 5 5 4 3 2 3 5 6 8 6 8 9 6 6 6
5 8 8 5 5 5 6 7 8 8 7 7 8 8 7 8 8 7 5 5 7 8 7 5 5 4 5 4 2 1 1 2 1 1 2 2 2 2 2 2 2 3 3 5 4 4 6 8 9
7 6 6 4 4 5 6 7 7 4 6 8 9 10 11 12 12 11 8 8 7 6 6 6 3 4 4 3 3 2 2 1 2 0 1 2 1 2 2 1 2 2 2 2 3 4 5 6 7
7 9 9 9 7 3 6 8 4 5 9 12 15 17 18 18 16 14 11 8 8 6 6 6 6 7 5 4 3 3 3 2 2 2 2 3 1 1 1 1 2 2 3 3 3 4 5 5 5
5 9 10 5 2 4 4 6 6 9 13 14 15 16 18 18 18 17 15 12 11 10 8 7 7 7 7 6 5 4 4 3 2 2 3 4 3 3 2 2 3 3 4 4 4 5 5 4 3
9 7 4 5 2 3 3 4 9 9 14 14 13 12 14 16 17 17 18 16 15 13 12 9 6 6 7 6 5 4 5 5 3 3 3 5 5 3 2 2 3 4 3 3 3 3 4 4 3
3 6 7 3 4 4 4 3 7 9 14 13 12 11 12 14 18 18 19 19 18 18 16 14 11 8 6 6 5 5 4 4 4 4 3 4 4 4 2 2 3 4 3 2 3 3 3 3 3
10 9 8 8 4 6 4 3 8 11 14 12 11 11 12 15 16 15 17 17 17 18 18 17 15 13 11 7 5 4 5 4 4 4 4 4 3 4 3 3 4 3 2 2 3 4 2 2 2
7 8 9 7 5 5 5 3 8 11 12 11 10 10 11 12 12 12 13 13 13 15 16 16 15 15 12 9 7 5 4 4 4 4 4 4 4 5 3 2 3 2 1 2 2 1 2 1 1
8 9 7 6 11 10 8 1 10 12 12 10 9 9 9 10 10 11 11 11 11 12 13 13 13 13 12 10 9 7 6 4 4 4 4 4 5 5 3 2 2 3 1 2 2 1 1 1 0
9 6 6 9 12 10 6 3 10 11 10 9 8 8 8 10 10 10 10 10 9 9 9 11 11 11 12 13 10 9 7 5 4 5 4 5 5 5 4 2 3 3 1 1 1 1 1 1 1
6 8 9 10 8 5 5 2 9 10 9 8 7 7 7 7 8 8 8 9 8 7 6 8 9 10 11 12 13 14 11 9 8 6 5 6 6 5 4 3 3 3 2 1 1 2 1 1 1
6 10 14 14 8 7 6 5 7 10 8 7 7 7 7 7 8 8 8 8 8 7 6 7 8 9 11 13 14 15 13 10 8 7 7 5 4 5 4 3 2 3 2 2 1 1 1 1 0
8 13 16 7 1 4 3 4 5 4 7 7 7 8 8 8 8 8 8 7 7 7 7 8 8 8 10 12 14 15 17 16 13 10 7 5 3 3 5 4 2 2 2 1 1 1 1 1 0
9 8 6 5 1 1 4 2 7 6 7 7 8 8 8 9 9 10 10 10 10 11 11 10 9 8 8 10 12 16 18 18 15 10 6 4 3 2 3 4 2 2 2 1 1 1 0 1 1
7 5 5 5 5 9 8 1 8 6 6 7 8 9 9 10 10 11 12 12 11 12 12 12 11 8 7 9 11 14 17 15 12 10 5 2 2 4 4 3 2 2 2 2 2 1 1 1 1
6 5 3 4 8 7 2 7 4 4 6 10 11 12 12 13 14 14 14 13 14 14 13 14 12 8 7 8 10 12 15 17 17 15 7 1 3 3 6 6 5 4 4 3 2 1 1 1 1
2 3 4 4 5 6 7 2 5 5 10 12 13 13 13 13 13 13 13 14 14 14 13 15 12 10 8 8 10 13 14 16 16 15 11 6 4 4 4 5 6 5 5 4 3 2 2 2 2
4 3 3 4 5 5 6 2 8 9 10 12 13 13 14 15 15 14 13 14 15 15 14 14 12 11 9 9 10 12 13 14 15 14 12 8 6 5 4 3 3 3 3 3 3 3 3 2 2
0 3 4 4 6 5 6 3 10 10 10 11 13 16 17 17 15 15 16 17 16 16 15 14 13 10 9 9 10 12 13 14 14 13 13 11 8 6 5 3 2 2 2 1 1 2 2 2 2
Wind_Direction
290 267 260 271 258 234 253 69 71 77 53 46 37 350 345 41 42 85 171 85 87 106 124 152 163 172 178 183 189 192 190 189 195 228 257 284 283 264 274 255 240 231 229 236 248 263 263 252 243
291 291 298 252 256 261 232 105 96 71 62 41 52 309 326 80 80 111 126 80 77 109 135 153 161 172 180 187 192 197 202 206 217 241 253 258 295 303 304 303 259 235 232 243 255 265 264 256 240
270 276 278 260 258 296 38 59 58 55 72 319 303 89 24 56 70 90 89 113 179 124 111 136 154 167 181 191 197 202 208 212 224 246 258 245 262 317 336 344 324 235 220 234 257 260 255 254 242
276 273 239 250 277 339 18 55 44 323 136 162 319 311 110 76 63 83 100 140 218 140 122 137 153 165 181 194 201 205 214 217 226 239 254 249 241 272 344 7 21 72 130 191 233 246 247 248 240
246 265 256 260 265 309 14 44 21 292 268 152 32 318 85 94 95 90 90 39 335 69 114 138 153 167 183 196 204 209 216 222 231 236 253 250 227 232 271 324 15 114 113 182 246 250 245 242 234
262 263 274 275 298 51 31 58 322 294 308 14 104 318 91 121 104 88 90 203 70 68 106 139 157 169 185 199 209 215 220 226 233 235 245 254 236 233 240 248 217 182 156 114 316 272 258 246 237
280 279 278 294 325 341 40 30 357 354 341 19 16 335 89 89 93 128 119 50 59 52 59 135 162 175 187 198 206 212 220 230 238 236 239 251 264 256 240 222 198 181 158 130 63 333 288 258 241
316 288 270 271 343 16 49 8 29 13 331 347 6 323 66 100 113 93 84 60 63 55 35 7 221 178 181 195 203 200 206 220 237 240 237 234 228 238 234 215 200 186 168 162 175 294 314 289 254
279 265 289 358 12 2 31 5 350 337 275 285 238 251 105 99 77 61 230 199 180 171 143 86 354 15 23 191 179 188 199 213 227 235 230 224 231 236 224 221 204 187 191 206 222 236 252 280 259
226 275 314 20 357 352 348 336 318 311 314 318 335 13 83 111 171 239 259 262 170 124 73 42 26 15 359 14 118 186 194 197 205 222 209 203 220 237 245 153 168 192 216 228 235 238 240 238 240
235 262 311 335 359 0 321 314 318 323 321 336 359 8 12 351 326 284 282 302 75 79 71 46 37 14 2 0 40 355 327 218 202 222 207 188 209 224 213 166 178 205 220 229 240 233 228 224 221
256 283 298 316 351 330 304 309 311 309 317 5 22 16 359 347 348 345 353 22 68 80 76 48 22 34 20 3 16 337 273 267 260 229 229 201 203 220 238 224 224 217 208 207 224 211 217 220 225
280 280 296 305 289 278 300 299 293 319 23 29 23 19 16 16 8 359 14 21 33 69 90 78 25 21 31 8 335 304 292 336 331 29 349 299 239 225 224 223 251 271 289 263 218 236 244 240 231
317 322 303 286 281 340 332 301 300 35 45 40 43 40 33 26 17 8 5 13 10 28 60 61 35 24 14 342 342 347 356 351 315 335 291 274 255 261 238 233 258 251 258 283 286 272 257 251 235
290 282 278 257 87 62 329 337 52 56 59 55 53 50 42 33 27 20 12 12 12 14 26 36 38 15 346 344 2 345 319 311 342 338 321 304 261 228 226 231 250 246 233 238 253 272 285 287 271
247 259 257 120 107 111 307 14 56 61 70 62 55 52 49 38 32 26 21 18 14 10 10 13 16 7 341 341 353 340 330 337 343 325 319 313 305 272 222 231 254 258 247 237 249 250 272 283 285
275 320 351 57 108 42 355 357 63 66 76 68 54 48 49 41 33 28 24 21 18 13 8 2 358 353 337 330 325 303 297 317 317 306 302 297 307 314 293 248 249 263 260 252 263 261 245 260 272
351 338 336 323 45 23 348 358 79 67 72 66 55 42 41 43 35 27 25 22 21 16 10 3 356 350 342 331 326 325 318 306 295 296 300 298 298 296 285 273 264 264 282 283 280 280 276 250 263
321 307 300 308 71 8 313 332 95 79 69 63 55 47 35 38 36 29 25 20 21 18 10 2 357 351 347 339 332 320 309 306 300 280 272 290 289 285 276 286 307 301 300 296 295 306 337 321 349
301 298 317 346 354 331 287 119 100 85 75 65 56 49 37 28 28 26 23 17 21 18 8 357 353 346 343 334 324 307 293 277 276 297 304 298 290 280 271 260 280 283 273 327 333 9 10 314 170
323 3 354 320 316 279 258 141 115 102 91 80 66 52 42 28 21 17 16 9 11 14 4 352 343 343 344 338 327 319 310 300 286 272 259 252 259 268 259 262 281 291 281 282 312 18 7 268 260
316 3 321 300 306 301 315 241 149 127 99 78 64 49 38 26 16 12 9 3 359 359 350 339 338 344 348 345 338 329 315 300 286 269 245 224 223 242 244 231 254 274 269 244 239 227 150 80 334
306 307 283 271 263 274 255 245 167 138 98 68 52 42 29 21 11 4 0 352 343 337 334 331 340 348 348 345 340 331 318 304 294 291 279 247 219 221 221 208 249 262 255 256 261 95 87 96 181
296 294 284 255 210 273 259 202 93 84 76 57 41 32 21 12 3 352 346 339 328 329 332 334 339 346 347 345 339 330 321 311 301 290 285 273 245 220 203 187 215 262 254 237 195 151 176 210 235
350 338 342 359 266 200 3 307 97 99 78 53 33 23 16 6 355 345 342 338 336 336 336 332 330 335 344 345 338 330 322 314 301 290 285 294 291 264 209 170 174 246 241 185 99 89 250 221 197
326 347 11 329 309 316 308 56 119 125 84 50 32 20 8 360 352 346 343 338 336 335 334 331 323 327 346 347 339 332 328 324 313 300 296 324 6 16 15 46 59 22 18 48 68 52 280 251 216
346 15 1 286 278 274 270 102 187 171 46 29 18 12 3 356 350 346 343 340 339 338 337 333 326 336 349 351 344 335 336 332 329 325 316 1 56 45 26 14 14 13 16 18 21 9 310 302 237
8 324 317 307 311 302 297 358 122 44 23 16 11 5 356 348 345 344 343 342 343 341 339 334 334 339 348 358 351 340 334 332 331 331 334 351 32 52 42 18 6 359 357 359 355 330 327 342 328
350 315 315 294 268 273 290 40 88 53 29 14 5 357 349 347 347 346 347 347 344 339 336 330 333 337 351 358 350 340 335 334 334 334 337 345 4 23 32 24 5 334 340 348 348 336 338 338 324
319 339 345 309 292 307 303 278 96 57 34 14 360 352 350 348 347 350 350 346 341 337 333 333 335 342 352 357 350 342 338 336 335 336 340 347 356 8 6 346 328 305 306 326 2 354 4 9 5